Location: Unspecified
(0.0000°N, 0.0000°E)
Time: 08:37:09
(UTC+00:00)

STRAND 1 - Visible Passes

Search period start: 24 January 2020 00:00
Search period end: 03 February 2020 00:00
Orbit: 768 x 781 km, 98.5° (Epoch: 23 January)

Date Brightness Start Highest point End Pass type
(mag) Time Alt. Az. Time Alt. Az. Time Alt. Az.
24 Jan ? 18:56:40 10° NNE 19:01:46 66° ESE 19:06:53 10° S visible
25 Jan ? 20:03:07 10° NNW 20:06:46 20° WNW 20:10:25 10° WSW visible
26 Jan ? 19:27:52 10° N 19:32:51 51° WNW 19:37:51 10° SSW visible
27 Jan ? 18:53:52 10° NNE 18:58:56 61° ESE 19:04:01 10° S visible
28 Jan ? 20:00:06 10° NNW 20:03:55 21° WNW 20:07:46 10° SW visible
29 Jan ? 19:25:00 10° N 19:30:01 55° WNW 19:35:03 10° SSW visible
30 Jan ? 18:51:04 10° NNE 18:56:06 56° ESE 19:01:09 10° S visible
31 Jan ? 19:57:06 10° NNW 20:01:05 23° WNW 20:05:06 10° SW visible
01 Feb ? 19:22:07 10° N 19:27:11 60° WNW 19:32:15 10° SSW visible
02 Feb ? 18:48:16 10° NNE 18:53:16 51° ESE 18:58:16 10° S visible
